TimeCDT,TemperatureF,Dew PointF,Humidity,Sea Level PressureIn,VisibilityMPH,Wind Direction,Wind SpeedMPH,Gust SpeedMPH,PrecipitationIn,Events,Conditions,WindDirDegrees,DateUTC
12:53 AM,35.1,27.0,72,30.38,10.0,SSE,9.2,-,N/A,,Partly Cloudy,150,2013-04-21 05:53:00
1:53 AM,35.1,28.0,76,30.37,10.0,SE,10.4,-,N/A,,Overcast,140,2013-04-21 06:53:00
2:53 AM,36.0,27.0,70,30.36,10.0,SSE,13.8,-,N/A,,Overcast,150,2013-04-21 07:53:00
3:53 AM,36.0,27.0,70,30.36,10.0,SE,12.7,-,N/A,,Overcast,140,2013-04-21 08:53:00
4:53 AM,36.0,28.0,73,30.36,10.0,SE,17.3,21.9,N/A,,Overcast,140,2013-04-21 09:53:00
5:53 AM,37.0,28.0,70,30.41,10.0,South,12.7,-,N/A,,Overcast,170,2013-04-21 10:53:00
6:53 AM,36.0,28.9,76,30.43,10.0,SSE,13.8,-,N/A,,Overcast,150,2013-04-21 11:53:00
7:53 AM,37.0,28.9,73,30.43,10.0,SE,19.6,24.2,N/A,,Overcast,140,2013-04-21 12:53:00
8:53 AM,37.9,28.0,68,30.43,10.0,SE,15.0,-,N/A,,Overcast,140,2013-04-21 13:53:00
9:53 AM,39.9,30.0,68,30.41,10.0,SSE,20.7,32.2,N/A,,Overcast,150,2013-04-21 14:53:00
10:53 AM,41.0,30.0,65,30.40,10.0,SSE,25.3,32.2,N/A,,Overcast,150,2013-04-21 15:53:00
11:53 AM,45.0,32.0,60,30.38,10.0,SSE,25.3,31.1,N/A,,Mostly Cloudy,150,2013-04-21 16:53:00
12:53 PM,48.9,34.0,56,30.34,10.0,SSE,24.2,33.4,N/A,,Overcast,150,2013-04-21 17:53:00
1:53 PM,48.0,34.0,58,30.32,10.0,SSE,17.3,27.6,N/A,,Overcast,160,2013-04-21 18:53:00
2:53 PM,52.0,36.0,54,30.29,10.0,SSE,19.6,31.1,N/A,,Partly Cloudy,160,2013-04-21 19:53:00
3:53 PM,54.0,39.0,57,30.26,10.0,SSE,20.7,31.1,N/A,,Partly Cloudy,160,2013-04-21 20:53:00
4:53 PM,55.0,39.0,55,30.23,10.0,South,25.3,31.1,N/A,,Clear,170,2013-04-21 21:53:00
5:53 PM,54.0,39.9,59,30.22,10.0,SSE,18.4,27.6,N/A,,Clear,160,2013-04-21 22:53:00
6:53 PM,53.1,39.9,61,30.22,10.0,SSE,18.4,-,N/A,,Partly Cloudy,160,2013-04-21 23:53:00
7:53 PM,51.1,41.0,68,30.22,10.0,SSE,17.3,-,N/A,,Mostly Cloudy,150,2013-04-22 00:53:00
8:53 PM,50.0,39.9,68,30.23,10.0,SSE,18.4,-,N/A,,Overcast,160,2013-04-22 01:53:00
9:53 PM,48.0,39.9,74,30.23,10.0,SSE,17.3,-,N/A,,Overcast,160,2013-04-22 02:53:00
10:53 PM,46.9,39.9,77,30.24,10.0,SSE,16.1,-,N/A,,Mostly Cloudy,160,2013-04-22 03:53:00
11:53 PM,46.9,39.9,77,30.23,10.0,South,17.3,-,N/A,,Overcast,170,2013-04-22 04:53:00